GFSGL_prec_pwat_159.txt.gz
Precipitable_Water
1.43 1.48 1.55 1.68 1.76 1.82 1.66 1.82 1.80 1.65 1.61 1.68 1.62 1.64 1.46 1.40 1.47 1.37 1.24 1.16 1.11 1.04 1.02 0.92 0.88 0.94 0.96 0.92 0.90 0.92 0.88 0.85 0.72 0.81 0.98 1.06 1.08 1.07 1.09 1.15 1.11 1.07 0.96
1.45 1.53 1.61 1.68 1.92 1.94 1.78 1.83 1.80 1.69 1.79 1.71 1.61 1.54 1.37 1.38 1.36 1.23 1.14 1.11 1.06 0.99 0.96 0.91 0.89 0.92 0.87 0.91 0.96 0.94 0.88 0.89 0.90 0.84 1.03 1.12 1.20 1.27 1.27 1.17 1.12 1.11 1.03
1.43 1.50 1.59 1.66 1.77 2.07 1.89 1.99 1.68 1.63 1.65 1.61 1.53 1.43 1.31 1.32 1.28 1.20 1.10 1.09 1.06 1.06 1.00 0.97 0.89 0.85 0.85 0.92 0.96 0.89 0.89 0.97 1.05 1.07 1.09 1.36 1.43 1.40 1.37 1.31 1.26 1.18 1.15
1.36 1.41 1.50 1.61 1.67 1.85 2.00 1.98 1.71 1.60 1.62 1.55 1.51 1.31 1.33 1.33 1.24 1.14 1.08 1.07 1.16 1.09 1.08 0.96 0.86 0.77 0.89 0.96 0.95 0.89 0.97 0.96 1.08 1.19 1.30 1.35 1.46 1.48 1.47 1.33 1.23 1.28 1.17
1.35 1.39 1.50 1.63 1.72 1.86 1.88 1.80 1.72 1.65 1.63 1.55 1.33 1.32 1.32 1.26 1.16 1.07 1.10 1.17 1.12 1.10 1.04 0.92 0.75 0.84 0.96 0.98 0.96 0.92 0.98 0.96 1.13 1.29 1.31 1.33 1.39 1.38 1.35 1.44 1.36 1.29 1.25
1.28 1.35 1.49 1.53 1.59 1.68 1.78 1.71 1.63 1.59 1.53 1.35 1.30 1.26 1.24 1.23 1.08 1.08 1.16 1.15 1.13 1.08 0.97 0.80 0.75 0.82 0.91 0.95 0.94 0.95 1.02 1.11 1.24 1.30 1.32 1.27 1.32 1.41 1.42 1.38 1.40 1.33 1.19
1.19 1.28 1.32 1.36 1.43 1.56 1.65 1.57 1.50 1.44 1.37 1.26 1.24 1.26 1.26 1.16 1.08 1.15 1.19 1.17 1.12 1.03 0.86 0.73 0.72 0.82 0.93 0.93 0.86 0.96 1.03 1.33 1.45 1.41 1.31 1.29 1.31 1.40 1.47 1.39 1.40 1.38 1.31
1.16 1.19 1.30 1.36 1.41 1.48 1.47 1.43 1.41 1.37 1.27 1.20 1.23 1.27 1.17 1.13 1.13 1.20 1.17 1.13 1.08 0.95 0.84 0.78 0.74 0.79 0.89 0.85 0.83 0.95 1.06 1.33 1.45 1.43 1.41 1.48 1.51 1.47 1.50 1.51 1.44 1.42 1.46
1.10 1.17 1.27 1.38 1.39 1.37 1.32 1.35 1.39 1.32 1.22 1.21 1.24 1.16 1.08 1.12 1.18 1.19 1.18 1.09 0.96 0.91 0.88 0.81 0.74 0.75 0.80 0.83 0.83 0.93 1.07 1.24 1.43 1.49 1.54 1.61 1.66 1.58 1.57 1.53 1.38 1.31 1.28
1.04 1.09 1.22 1.34 1.40 1.41 1.44 1.43 1.37 1.28 1.19 1.25 1.19 1.09 1.08 1.17 1.20 1.20 1.08 0.96 0.91 0.88 0.87 0.73 0.71 0.71 0.78 0.77 0.82 0.90 1.02 1.15 1.28 1.38 1.48 1.56 1.59 1.58 1.58 1.56 1.49 1.33 1.31
1.12 1.22 1.29 1.36 1.43 1.40 1.36 1.36 1.28 1.21 1.19 1.24 1.10 1.11 1.13 1.22 1.19 1.07 0.98 0.93 0.92 0.86 0.73 0.60 0.66 0.68 0.72 0.75 0.82 0.89 1.03 1.19 1.18 1.35 1.39 1.46 1.49 1.48 1.53 1.54 1.52 1.42 1.35
1.18 1.24 1.24 1.34 1.40 1.42 1.34 1.28 1.26 1.23 1.18 1.11 1.10 1.07 1.20 1.25 1.10 0.99 0.94 0.94 0.95 0.85 0.69 0.59 0.61 0.63 0.69 0.72 0.77 0.86 0.96 1.15 1.17 1.21 1.30 1.33 1.37 1.38 1.45 1.50 1.53 1.53 1.58
1.25 1.18 1.17 1.40 1.41 1.37 1.26 1.30 1.29 1.21 1.11 1.07 1.05 1.19 1.19 1.13 1.04 0.97 0.98 0.97 0.90 0.79 0.62 0.53 0.53 0.56 0.60 0.66 0.75 0.76 0.83 0.97 1.02 1.07 1.17 1.26 1.28 1.35 1.41 1.45 1.53 1.55 1.57
1.15 1.09 1.18 1.31 1.29 1.30 1.34 1.37 1.26 1.11 1.06 1.10 1.12 1.20 1.13 1.01 0.97 1.01 0.99 0.97 0.86 0.71 0.53 0.49 0.45 0.46 0.46 0.54 0.60 0.67 0.68 0.77 0.84 0.95 1.02 1.17 1.30 1.29 1.29 1.38 1.39 1.43 1.43
1.09 1.18 1.20 1.20 1.20 1.37 1.37 1.36 1.29 1.19 1.18 1.18 1.24 1.17 1.03 0.94 0.96 0.98 0.96 0.88 0.78 0.62 0.50 0.45 0.41 0.41 0.39 0.38 0.47 0.51 0.57 0.63 0.64 0.74 0.82 0.92 1.02 1.12 1.16 1.23 1.26 1.28 1.25
0.99 1.12 1.17 1.10 1.17 1.24 1.24 1.22 1.27 1.20 1.23 1.33 1.24 1.18 1.07 1.00 1.00 0.96 0.89 0.83 0.72 0.61 0.44 0.40 0.40 0.40 0.37 0.35 0.37 0.41 0.46 0.54 0.54 0.52 0.54 0.61 0.72 0.77 0.86 0.96 1.04 1.09 1.15
0.86 0.90 1.01 1.09 1.18 1.15 1.10 1.12 1.09 1.22 1.29 1.24 1.18 1.11 1.01 1.00 0.95 0.92 0.87 0.79 0.71 0.59 0.40 0.39 0.40 0.38 0.33 0.34 0.33 0.37 0.39 0.45 0.53 0.53 0.52 0.48 0.45 0.45 0.49 0.54 0.58 0.67 0.77
0.90 0.91 0.94 0.99 0.95 0.98 1.00 1.09 1.12 1.15 1.09 1.02 1.02 0.98 0.99 0.97 0.95 0.91 0.86 0.83 0.66 0.50 0.42 0.40 0.39 0.40 0.36 0.32 0.34 0.35 0.37 0.38 0.39 0.41 0.41 0.43 0.46 0.44 0.39 0.40 0.42 0.42 0.42
0.90 0.94 1.02 1.00 1.02 1.07 1.11 1.11 1.12 1.11 1.04 0.98 0.97 0.97 0.99 1.00 0.97 0.89 0.86 0.79 0.60 0.48 0.45 0.40 0.38 0.41 0.41 0.37 0.36 0.38 0.40 0.38 0.38 0.36 0.35 0.35 0.36 0.35 0.36 0.38 0.37 0.38 0.39
0.91 0.97 1.00 1.00 0.98 0.99 1.04 1.07 1.08 1.05 1.06 1.01 0.96 0.96 1.00 0.99 0.90 0.89 0.94 0.77 0.62 0.52 0.47 0.42 0.38 0.35 0.36 0.40 0.40 0.38 0.39 0.38 0.37 0.37 0.37 0.36 0.35 0.34 0.32 0.32 0.31 0.31 0.33
0.94 0.98 0.99 1.02 1.03 1.04 1.03 1.01 1.03 1.07 1.07 1.02 1.01 1.04 1.02 0.98 0.91 0.83 0.80 0.72 0.60 0.54 0.49 0.45 0.40 0.34 0.33 0.35 0.37 0.37 0.38 0.40 0.40 0.40 0.40 0.39 0.38 0.36 0.36 0.35 0.34 0.34 0.31
0.92 0.92 0.94 0.96 0.99 1.00 1.06 1.09 1.08 1.08 1.08 1.03 1.01 1.02 1.02 1.00 0.89 0.84 0.79 0.68 0.62 0.58 0.52 0.47 0.40 0.35 0.34 0.34 0.35 0.36 0.35 0.36 0.38 0.39 0.40 0.40 0.38 0.37 0.37 0.36 0.35 0.34 0.31
0.92 0.91 0.92 0.94 0.97 0.99 1.03 1.06 1.05 1.05 1.04 1.05 1.06 1.06 1.06 0.97 0.90 0.85 0.74 0.67 0.62 0.55 0.49 0.42 0.36 0.34 0.37 0.37 0.38 0.39 0.37 0.37 0.39 0.40 0.39 0.39 0.38 0.38 0.38 0.36 0.34 0.33 0.32
0.96 0.95 0.95 0.97 1.00 1.01 1.02 1.04 1.06 1.06 1.06 1.05 1.07 1.08 1.00 0.90 0.83 0.78 0.71 0.65 0.57 0.49 0.43 0.38 0.35 0.34 0.35 0.37 0.39 0.40 0.39 0.40 0.42 0.41 0.42 0.40 0.39 0.39 0.37 0.36 0.35 0.34 0.33
1.00 0.98 0.97 1.00 1.01 1.01 1.02 1.07 1.06 1.06 1.07 1.06 1.06 1.01 0.94 0.86 0.83 0.74 0.64 0.55 0.47 0.43 0.40 0.38 0.36 0.35 0.35 0.36 0.37 0.39 0.39 0.40 0.41 0.41 0.42 0.41 0.39 0.38 0.37 0.35 0.35 0.34 0.33
1.00 0.98 0.97 0.98 0.99 1.02 1.03 1.04 1.00 1.01 0.99 1.00 0.99 0.91 0.85 0.81 0.73 0.64 0.54 0.46 0.43 0.40 0.41 0.42 0.42 0.41 0.41 0.41 0.42 0.41 0.41 0.41 0.41 0.41 0.41 0.39 0.37 0.35 0.36 0.35 0.34 0.33 0.33

GFSGL_prec_pwat_162.txt.gz
Precipitable_Water
1.41 1.42 1.45 1.51 1.65 1.76 1.80 1.88 1.82 1.80 1.85 1.57 1.46 1.49 1.57 1.53 1.51 1.50 1.50 1.29 1.17 1.10 1.05 0.99 1.01 1.07 1.00 0.94 1.00 0.96 0.94 0.90 0.72 0.74 0.91 0.96 1.10 1.20 1.26 1.33 1.31 1.22 1.18
1.47 1.50 1.54 1.61 1.73 1.75 1.75 1.86 1.97 1.99 2.01 1.77 1.56 1.60 1.61 1.51 1.45 1.50 1.34 1.18 1.12 1.01 1.01 1.03 1.08 1.06 0.96 0.90 0.95 0.93 0.92 0.91 0.84 0.74 0.86 0.99 1.13 1.27 1.33 1.37 1.39 1.39 1.31
1.53 1.58 1.63 1.65 1.69 1.72 1.78 1.87 1.91 1.99 1.97 1.85 1.75 1.67 1.57 1.49 1.47 1.44 1.29 1.15 1.07 1.06 1.10 1.09 1.07 1.02 0.86 0.85 0.90 0.89 0.90 0.90 0.90 0.88 0.89 1.13 1.28 1.38 1.41 1.53 1.55 1.57 1.46
1.46 1.50 1.53 1.60 1.65 1.71 1.80 1.83 1.83 1.97 2.02 1.91 1.82 1.66 1.56 1.52 1.43 1.36 1.21 1.10 1.12 1.14 1.15 1.14 1.06 0.91 0.78 0.80 0.85 0.88 0.89 0.93 0.94 0.92 1.11 1.22 1.37 1.47 1.48 1.45 1.43 1.54 1.44
1.30 1.38 1.48 1.61 1.68 1.72 1.78 1.83 1.88 1.99 2.03 1.84 1.71 1.57 1.55 1.44 1.37 1.25 1.13 1.12 1.18 1.14 1.14 1.11 0.98 0.86 0.77 0.82 0.87 0.88 0.96 0.93 0.91 1.00 1.24 1.29 1.30 1.31 1.30 1.40 1.40 1.46 1.50
1.30 1.33 1.45 1.56 1.63 1.63 1.65 1.72 1.85 1.87 1.76 1.68 1.56 1.49 1.46 1.31 1.23 1.12 1.05 1.17 1.20 1.16 1.15 1.03 0.96 0.89 0.86 0.83 0.88 0.91 1.00 0.95 0.94 1.05 1.24 1.23 1.26 1.32 1.38 1.37 1.38 1.39 1.23
1.33 1.37 1.42 1.49 1.48 1.51 1.58 1.63 1.63 1.60 1.66 1.51 1.44 1.43 1.29 1.24 1.20 1.03 1.09 1.16 1.18 1.19 1.09 0.95 0.91 0.86 0.81 0.82 0.81 0.87 1.02 1.04 1.08 1.20 1.25 1.29 1.31 1.45 1.42 1.37 1.35 1.35 1.36
1.32 1.32 1.37 1.39 1.41 1.48 1.51 1.53 1.57 1.55 1.44 1.39 1.37 1.28 1.23 1.30 1.13 1.05 1.12 1.16 1.19 1.13 1.00 0.95 0.93 0.85 0.81 0.73 0.74 0.84 0.97 1.03 1.07 1.22 1.34 1.41 1.48 1.57 1.52 1.43 1.45 1.48 1.46
1.20 1.22 1.25 1.31 1.35 1.42 1.43 1.49 1.50 1.46 1.40 1.32 1.28 1.22 1.22 1.23 1.09 1.09 1.13 1.16 1.16 1.01 1.00 1.00 0.89 0.75 0.72 0.68 0.67 0.81 0.90 0.97 1.13 1.23 1.41 1.49 1.55 1.60 1.60 1.53 1.43 1.37 1.27
1.18 1.22 1.25 1.27 1.25 1.26 1.36 1.40 1.57 1.47 1.38 1.30 1.25 1.28 1.26 1.19 1.13 1.14 1.13 1.16 0.96 0.96 0.99 0.95 0.89 0.71 0.63 0.65 0.66 0.81 0.81 0.88 1.08 1.18 1.32 1.44 1.50 1.51 1.55 1.53 1.48 1.35 1.32
1.10 1.08 1.16 1.28 1.29 1.41 1.43 1.39 1.46 1.43 1.34 1.25 1.24 1.26 1.24 1.21 1.17 1.13 1.11 1.02 0.95 0.94 0.94 0.84 0.70 0.60 0.57 0.62 0.66 0.77 0.77 0.88 1.04 1.10 1.24 1.34 1.40 1.42 1.44 1.48 1.48 1.43 1.34
1.28 1.34 1.37 1.47 1.57 1.61 1.51 1.27 1.42 1.39 1.32 1.25 1.26 1.23 1.22 1.22 1.22 1.14 1.03 0.91 0.96 0.95 0.87 0.70 0.58 0.50 0.50 0.59 0.65 0.69 0.76 0.79 0.91 0.92 1.08 1.21 1.28 1.31 1.37 1.44 1.47 1.51 1.52
1.32 1.37 1.49 1.65 1.57 1.63 1.43 1.35 1.38 1.32 1.24 1.29 1.25 1.19 1.20 1.32 1.14 1.07 0.94 0.94 0.96 0.87 0.81 0.54 0.46 0.43 0.45 0.56 0.58 0.58 0.63 0.69 0.71 0.78 0.90 1.06 1.21 1.27 1.36 1.40 1.45 1.51 1.50
1.30 1.42 1.51 1.45 1.52 1.54 1.39 1.46 1.27 1.20 1.28 1.27 1.18 1.16 1.24 1.29 1.14 1.03 1.00 1.00 0.94 0.84 0.75 0.58 0.45 0.45 0.48 0.48 0.53 0.53 0.52 0.61 0.61 0.59 0.71 0.89 1.01 1.13 1.18 1.29 1.32 1.36 1.37
1.21 1.28 1.35 1.39 1.45 1.45 1.45 1.33 1.34 1.38 1.38 1.30 1.22 1.18 1.17 1.24 1.02 0.99 0.98 0.89 0.81 0.72 0.64 0.53 0.43 0.41 0.43 0.42 0.46 0.47 0.48 0.50 0.55 0.55 0.54 0.55 0.66 0.80 0.86 1.05 1.16 1.21 1.22
1.18 1.32 1.45 1.52 1.34 1.32 1.26 1.14 1.37 1.33 1.31 1.25 1.19 1.21 1.24 1.15 0.97 0.93 0.88 0.82 0.74 0.68 0.58 0.46 0.39 0.38 0.39 0.38 0.38 0.39 0.40 0.44 0.46 0.54 0.52 0.51 0.49 0.49 0.53 0.59 0.78 0.89 1.01
1.22 1.28 1.19 1.13 1.21 1.13 1.14 1.22 1.03 1.13 1.22 1.19 1.16 1.16 1.10 1.01 0.96 0.90 0.84 0.79 0.72 0.68 0.50 0.44 0.41 0.39 0.39 0.39 0.38 0.39 0.38 0.40 0.45 0.43 0.43 0.45 0.49 0.48 0.49 0.49 0.49 0.54 0.58
1.12 1.01 0.92 0.97 1.02 1.11 1.08 1.04 1.06 1.02 1.00 1.03 1.13 1.08 0.99 0.97 0.93 0.88 0.86 0.85 0.76 0.65 0.50 0.45 0.42 0.40 0.40 0.42 0.42 0.41 0.41 0.41 0.41 0.41 0.40 0.40 0.41 0.41 0.39 0.38 0.41 0.44 0.46
0.96 0.98 1.02 1.01 1.00 0.95 0.94 0.99 1.07 1.08 1.00 0.96 0.99 0.96 0.97 0.97 0.93 0.88 0.89 0.82 0.78 0.61 0.52 0.44 0.42 0.39 0.38 0.42 0.45 0.44 0.44 0.40 0.42 0.42 0.41 0.41 0.40 0.39 0.38 0.38 0.36 0.36 0.39
0.98 0.97 0.97 0.96 0.96 0.99 1.04 1.01 1.04 1.08 1.05 0.94 0.93 0.93 0.97 0.96 0.91 0.90 0.88 0.78 0.70 0.59 0.53 0.45 0.42 0.41 0.39 0.38 0.40 0.42 0.42 0.43 0.43 0.42 0.42 0.42 0.42 0.41 0.39 0.38 0.37 0.35 0.35
0.91 0.89 0.92 0.96 1.00 1.02 1.03 1.03 1.07 1.11 1.07 1.00 0.97 0.99 1.01 0.99 0.94 0.88 0.83 0.77 0.65 0.60 0.55 0.49 0.42 0.40 0.39 0.38 0.39 0.39 0.38 0.39 0.40 0.42 0.42 0.42 0.42 0.40 0.40 0.41 0.40 0.36 0.36
0.85 0.90 0.93 0.94 0.99 1.00 0.99 1.07 1.09 1.09 1.12 1.03 1.00 0.99 1.00 1.00 0.92 0.89 0.84 0.79 0.67 0.60 0.55 0.48 0.40 0.37 0.38 0.39 0.39 0.39 0.38 0.38 0.40 0.42 0.44 0.43 0.41 0.43 0.42 0.40 0.38 0.37 0.33
0.89 0.89 0.91 0.93 0.96 0.97 0.97 1.06 1.09 1.10 1.08 1.03 1.00 0.97 0.99 0.99 0.94 0.91 0.85 0.75 0.66 0.59 0.50 0.42 0.37 0.37 0.38 0.39 0.40 0.40 0.39 0.40 0.43 0.44 0.43 0.43 0.42 0.41 0.42 0.39 0.38 0.37 0.36
0.93 0.93 0.94 0.95 0.96 1.00 1.07 1.10 1.09 1.08 1.06 1.04 1.02 1.01 1.01 1.02 0.95 0.93 0.81 0.70 0.60 0.50 0.42 0.39 0.39 0.40 0.39 0.38 0.39 0.38 0.36 0.37 0.41 0.42 0.45 0.43 0.41 0.41 0.40 0.39 0.38 0.37 0.37
0.97 0.98 0.99 1.00 1.01 1.05 1.09 1.09 1.05 1.06 1.08 1.09 1.07 1.03 0.99 0.92 0.92 0.86 0.76 0.62 0.51 0.43 0.41 0.41 0.42 0.43 0.44 0.43 0.41 0.40 0.39 0.39 0.40 0.41 0.44 0.42 0.40 0.40 0.39 0.38 0.38 0.37 0.38
1.02 0.99 0.97 0.97 0.98 1.02 1.08 1.10 1.08 1.05 1.04 1.07 1.04 0.98 0.91 0.90 0.87 0.78 0.64 0.53 0.46 0.42 0.42 0.43 0.45 0.47 0.46 0.47 0.45 0.43 0.42 0.41 0.41 0.41 0.43 0.43 0.41 0.36 0.38 0.38 0.37 0.36 0.38

GFSGL_prec_pwat_165.txt.gz
Precipitable_Water
1.37 1.49 1.49 1.54 1.56 1.60 1.58 1.70 1.77 1.82 1.98 2.01 2.01 1.91 1.76 1.75 1.64 1.56 1.54 1.43 1.33 1.21 1.22 1.12 1.07 1.13 1.11 1.07 0.98 0.97 0.91 0.86 0.77 0.81 0.86 0.96 1.00 1.11 1.22 1.25 1.27 1.32 1.34
1.45 1.44 1.46 1.53 1.59 1.64 1.68 1.77 1.89 1.91 2.10 2.06 1.99 1.70 1.95 1.83 1.69 1.56 1.47 1.39 1.20 1.22 1.14 1.09 1.11 1.11 1.05 1.03 0.89 0.82 0.81 0.90 0.85 0.79 0.93 0.90 0.95 1.14 1.30 1.28 1.32 1.38 1.38
1.47 1.48 1.52 1.56 1.63 1.68 1.78 1.88 1.94 1.95 2.06 2.07 2.02 2.06 2.00 1.85 1.68 1.55 1.48 1.30 1.23 1.18 1.15 1.15 1.12 1.10 1.06 0.97 0.84 0.79 0.84 0.86 0.91 0.88 0.86 0.89 0.96 1.27 1.36 1.44 1.43 1.43 1.47
1.53 1.57 1.57 1.63 1.70 1.77 1.87 1.91 1.91 1.99 1.95 1.95 1.96 2.01 1.95 1.86 1.68 1.52 1.40 1.26 1.20 1.20 1.21 1.20 1.17 1.14 0.98 0.90 0.88 0.77 0.84 0.83 0.91 0.89 0.86 0.86 0.98 1.28 1.42 1.37 1.34 1.46 1.44
1.44 1.49 1.51 1.65 1.72 1.76 1.77 1.81 1.87 1.85 1.86 1.92 1.88 1.90 1.84 1.70 1.57 1.44 1.33 1.21 1.21 1.18 1.22 1.19 1.22 1.07 0.95 1.00 0.87 0.81 0.81 0.83 0.91 0.91 0.87 0.87 1.05 1.21 1.28 1.35 1.30 1.39 1.40
1.43 1.39 1.47 1.54 1.62 1.64 1.70 1.71 1.76 1.78 1.82 1.88 1.78 1.69 1.63 1.52 1.44 1.39 1.19 1.16 1.17 1.16 1.15 1.21 1.16 1.02 1.01 0.94 0.88 0.78 0.80 0.86 0.94 0.93 0.88 0.89 1.10 1.28 1.35 1.37 1.33 1.29 1.24
1.41 1.47 1.51 1.57 1.57 1.58 1.63 1.64 1.65 1.70 1.76 1.68 1.64 1.67 1.59 1.51 1.36 1.20 1.06 1.05 1.10 1.12 1.18 1.20 1.02 1.01 0.99 0.87 0.72 0.71 0.79 0.95 1.09 0.98 0.92 1.02 1.18 1.32 1.37 1.38 1.39 1.32 1.31
1.43 1.52 1.56 1.54 1.44 1.49 1.54 1.51 1.53 1.55 1.56 1.60 1.61 1.50 1.44 1.39 1.28 1.11 1.02 1.09 1.09 1.15 1.26 1.09 1.01 1.07 0.98 0.72 0.61 0.66 0.77 0.92 0.99 1.02 1.06 1.16 1.35 1.40 1.43 1.48 1.48 1.44 1.48
1.46 1.47 1.39 1.35 1.32 1.32 1.29 1.35 1.42 1.48 1.56 1.54 1.49 1.49 1.39 1.32 1.19 1.07 1.06 1.07 1.10 1.26 1.14 1.04 1.03 1.01 0.82 0.62 0.58 0.62 0.72 0.81 0.91 1.06 1.10 1.25 1.39 1.43 1.47 1.46 1.39 1.36 1.31
1.40 1.27 1.30 1.26 1.22 1.25 1.32 1.35 1.48 1.55 1.58 1.55 1.42 1.42 1.34 1.26 1.22 1.12 1.07 1.09 1.14 1.11 1.02 1.00 0.99 0.89 0.67 0.54 0.55 0.60 0.63 0.68 0.76 0.92 1.02 1.19 1.36 1.40 1.44 1.41 1.38 1.28 1.27
1.37 1.38 1.37 1.35 1.36 1.40 1.52 1.58 1.56 1.59 1.48 1.44 1.42 1.36 1.31 1.29 1.27 1.14 1.13 1.11 1.09 0.96 0.94 0.94 0.91 0.67 0.47 0.45 0.54 0.62 0.57 0.64 0.73 0.85 0.88 1.05 1.24 1.32 1.37 1.40 1.39 1.38 1.31
1.46 1.36 1.34 1.44 1.51 1.53 1.58 1.63 1.61 1.62 1.55 1.39 1.37 1.27 1.32 1.41 1.34 1.22 1.12 1.08 1.01 0.92 0.92 0.86 0.72 0.44 0.42 0.43 0.54 0.54 0.56 0.61 0.69 0.68 0.75 0.87 1.04 1.15 1.26 1.37 1.42 1.46 1.47
1.32 1.35 1.47 1.46 1.59 1.63 1.50 1.53 1.53 1.58 1.57 1.50 1.34 1.32 1.35 1.40 1.26 1.18 1.09 1.03 0.94 0.88 0.89 0.75 0.61 0.47 0.47 0.48 0.53 0.56 0.57 0.52 0.56 0.60 0.56 0.66 0.81 0.92 1.14 1.24 1.38 1.45 1.45
1.27 1.31 1.41 1.32 1.40 1.51 1.53 1.58 1.58 1.56 1.48 1.26 1.24 1.35 1.34 1.32 1.18 1.08 1.08 1.03 0.96 0.91 0.78 0.78 0.62 0.51 0.49 0.47 0.52 0.55 0.52 0.53 0.53 0.57 0.57 0.63 0.60 0.66 0.83 1.03 1.15 1.27 1.31
1.20 1.23 1.32 1.38 1.50 1.57 1.60 1.63 1.56 1.41 1.32 1.20 1.48 1.35 1.29 1.24 1.07 1.06 1.07 0.92 0.85 0.77 0.70 0.66 0.55 0.49 0.45 0.44 0.46 0.48 0.46 0.45 0.48 0.50 0.50 0.50 0.54 0.56 0.54 0.69 0.82 1.03 1.11
1.24 1.32 1.41 1.44 1.53 1.56 1.51 1.50 1.34 1.32 1.39 1.30 1.58 1.33 1.26 1.17 1.08 1.03 0.90 0.82 0.76 0.73 0.71 0.56 0.50 0.46 0.43 0.42 0.45 0.46 0.45 0.44 0.46 0.45 0.47 0.48 0.49 0.48 0.50 0.53 0.58 0.60 0.80
1.14 1.24 1.27 1.32 1.34 1.39 1.43 1.23 1.10 1.20 1.29 1.27 1.18 1.12 1.12 1.03 1.02 0.92 0.85 0.81 0.76 0.76 0.69 0.54 0.49 0.47 0.45 0.41 0.44 0.48 0.47 0.43 0.48 0.45 0.44 0.44 0.45 0.46 0.43 0.42 0.45 0.50 0.50
1.27 1.24 1.22 1.41 1.39 1.15 1.07 1.13 1.08 1.16 1.05 1.06 1.05 1.05 1.02 1.00 0.94 0.88 0.88 0.87 0.78 0.75 0.69 0.54 0.48 0.45 0.45 0.44 0.43 0.47 0.50 0.46 0.46 0.46 0.45 0.46 0.45 0.43 0.43 0.42 0.40 0.43 0.46
1.16 1.16 1.18 1.09 1.07 1.07 1.05 1.09 1.09 1.07 1.01 0.94 0.93 0.97 0.98 0.93 0.90 0.92 0.93 0.86 0.74 0.67 0.60 0.52 0.49 0.46 0.44 0.45 0.44 0.45 0.49 0.45 0.45 0.45 0.44 0.45 0.45 0.47 0.44 0.43 0.41 0.41 0.40
0.92 0.96 0.94 0.97 0.95 0.95 1.00 1.01 1.14 1.13 1.02 0.91 0.93 0.94 0.94 0.91 0.89 0.93 0.93 0.84 0.76 0.63 0.56 0.56 0.52 0.49 0.47 0.45 0.46 0.44 0.43 0.43 0.43 0.44 0.45 0.45 0.46 0.44 0.40 0.44 0.42 0.38 0.42
1.02 0.84 0.90 1.00 1.04 1.08 1.05 1.00 1.06 1.15 1.04 0.96 0.95 0.96 0.97 0.95 0.93 0.92 0.87 0.83 0.76 0.69 0.59 0.55 0.49 0.45 0.41 0.41 0.43 0.44 0.43 0.42 0.43 0.45 0.46 0.47 0.46 0.45 0.45 0.42 0.40 0.38 0.39
0.92 1.02 0.88 0.92 1.03 0.98 1.08 1.12 1.10 1.11 1.06 1.00 0.98 0.95 0.98 0.98 0.92 0.90 0.88 0.84 0.79 0.66 0.60 0.55 0.46 0.41 0.41 0.40 0.40 0.40 0.40 0.41 0.45 0.46 0.47 0.47 0.45 0.46 0.44 0.42 0.41 0.40 0.35
0.89 0.89 0.94 0.92 1.00 1.04 0.98 1.03 1.03 1.07 1.09 1.07 0.98 0.94 0.95 0.96 0.91 0.92 0.93 0.87 0.75 0.64 0.54 0.46 0.41 0.42 0.45 0.44 0.43 0.38 0.36 0.35 0.41 0.43 0.45 0.45 0.44 0.43 0.43 0.42 0.40 0.40 0.39
0.93 0.93 0.93 0.94 0.98 1.00 0.99 1.03 1.09 1.15 1.11 1.03 0.99 0.95 0.98 0.99 0.94 0.94 0.90 0.82 0.69 0.56 0.47 0.44 0.45 0.47 0.47 0.45 0.43 0.39 0.37 0.37 0.42 0.43 0.47 0.44 0.41 0.42 0.41 0.40 0.40 0.40 0.40
0.93 0.93 0.96 0.97 0.99 1.00 1.00 1.09 1.10 1.11 1.07 1.03 1.00 1.00 1.04 0.98 0.94 0.91 0.87 0.73 0.59 0.48 0.44 0.44 0.47 0.50 0.50 0.48 0.45 0.43 0.40 0.40 0.40 0.41 0.47 0.46 0.43 0.42 0.41 0.40 0.41 0.41 0.42
1.04 1.00 0.98 0.97 0.98 1.02 1.09 1.10 1.11 1.13 1.10 1.08 1.04 1.03 0.99 0.92 0.93 0.89 0.79 0.63 0.52 0.46 0.43 0.45 0.48 0.49 0.48 0.46 0.44 0.43 0.42 0.42 0.42 0.44 0.46 0.46 0.45 0.38 0.42 0.42 0.42 0.42 0.43

GFSGL_prec_pwat_168.txt.gz
Precipitable_Water
1.43 1.48 1.48 1.49 1.48 1.55 1.50 1.58 1.54 1.71 1.75 1.86 1.93 1.91 1.93 1.88 1.91 1.83 1.70 1.72 1.63 1.53 1.29 1.14 1.19 1.16 1.12 1.12 1.08 1.05 0.90 0.81 0.71 0.76 0.83 0.90 0.95 0.98 0.99 1.00 1.01 1.09 1.27
1.44 1.47 1.46 1.53 1.52 1.53 1.55 1.55 1.70 1.74 1.89 1.90 1.94 1.98 1.95 1.88 1.92 1.90 1.76 1.73 1.57 1.41 1.25 1.19 1.17 1.14 1.10 1.13 1.09 0.94 0.88 0.85 0.82 0.72 0.77 0.87 0.93 0.98 0.95 0.93 1.02 1.25 1.34
1.35 1.45 1.50 1.53 1.55 1.53 1.58 1.67 1.74 1.86 1.95 2.01 2.01 1.94 1.90 1.94 1.91 2.01 1.80 1.73 1.58 1.35 1.19 1.19 1.17 1.12 1.09 1.13 0.94 0.92 0.91 0.89 0.79 0.73 0.78 0.96 0.99 0.91 0.86 1.01 1.30 1.42 1.49
1.35 1.42 1.46 1.52 1.55 1.58 1.69 1.80 1.86 1.98 1.98 2.02 2.03 1.98 1.93 1.92 1.95 1.85 1.81 1.67 1.50 1.26 1.24 1.23 1.19 1.14 1.13 0.98 0.93 0.93 0.86 0.72 0.71 0.76 0.88 0.91 0.85 0.88 0.98 1.15 1.26 1.39 1.40
1.36 1.44 1.50 1.63 1.68 1.70 1.77 1.85 1.97 1.98 2.03 1.98 1.94 1.87 1.80 1.79 1.84 1.75 1.68 1.49 1.29 1.21 1.22 1.24 1.20 1.19 1.12 0.99 1.01 0.87 0.70 0.65 0.73 0.81 0.90 0.85 0.80 0.85 1.04 1.26 1.29 1.36 1.41
1.41 1.46 1.60 1.68 1.74 1.74 1.79 1.85 1.87 1.88 1.78 1.79 1.66 1.67 1.69 1.77 1.71 1.67 1.62 1.44 1.25 1.17 1.15 1.21 1.23 1.20 1.04 1.08 1.04 0.74 0.61 0.70 0.78 0.86 0.85 0.81 0.81 1.01 1.24 1.27 1.30 1.30 1.24
1.49 1.53 1.62 1.70 1.70 1.76 1.78 1.75 1.66 1.60 1.68 1.64 1.70 1.71 1.74 1.82 1.61 1.53 1.49 1.30 1.07 1.10 1.16 1.14 1.23 1.09 1.06 1.04 0.82 0.66 0.62 0.75 0.89 0.88 0.81 0.88 0.94 1.19 1.25 1.25 1.30 1.34 1.35
1.49 1.53 1.64 1.69 1.69 1.78 1.74 1.65 1.58 1.60 1.64 1.77 1.80 1.82 1.72 1.60 1.59 1.54 1.31 1.10 1.09 1.14 1.17 1.27 1.13 1.03 1.03 0.90 0.73 0.56 0.58 0.71 0.77 0.77 0.88 1.00 1.07 1.29 1.31 1.32 1.31 1.36 1.45
1.46 1.55 1.67 1.78 1.76 1.71 1.59 1.55 1.59 1.57 1.65 1.66 1.62 1.75 1.77 1.71 1.64 1.35 1.19 1.13 1.12 1.18 1.29 1.22 1.04 1.04 0.97 0.76 0.55 0.49 0.56 0.59 0.63 0.75 0.92 0.99 1.06 1.23 1.33 1.33 1.23 1.22 1.21
1.57 1.69 1.82 1.80 1.62 1.48 1.53 1.49 1.59 1.66 1.61 1.65 1.69 1.67 1.70 1.64 1.57 1.39 1.22 1.18 1.16 1.15 1.15 1.02 0.96 0.90 0.81 0.49 0.44 0.51 0.50 0.47 0.54 0.62 0.77 0.87 0.93 1.02 1.26 1.33 1.26 1.20 1.23
1.80 1.84 1.73 1.54 1.42 1.42 1.44 1.52 1.46 1.46 1.58 1.51 1.52 1.49 1.53 1.47 1.27 1.31 1.17 1.17 1.12 1.05 1.00 0.96 0.90 0.77 0.55 0.46 0.50 0.52 0.50 0.52 0.51 0.61 0.72 0.74 0.72 0.87 1.08 1.26 1.36 1.29 1.23
1.81 1.51 1.40 1.34 1.42 1.54 1.40 1.41 1.50 1.51 1.44 1.49 1.51 1.49 1.48 1.34 1.26 1.26 1.14 1.14 1.06 0.99 0.95 0.89 0.76 0.61 0.57 0.53 0.51 0.53 0.53 0.50 0.52 0.57 0.57 0.60 0.57 0.72 0.93 1.14 1.27 1.38 1.42
1.42 1.37 1.39 1.49 1.54 1.53 1.49 1.47 1.46 1.56 1.54 1.51 1.47 1.47 1.42 1.28 1.36 1.25 1.13 1.07 0.97 0.97 0.96 0.78 0.73 0.62 0.57 0.53 0.52 0.54 0.50 0.44 0.48 0.49 0.47 0.52 0.59 0.60 0.74 0.89 1.21 1.28 1.40
1.47 1.48 1.47 1.41 1.40 1.52 1.55 1.52 1.53 1.55 1.49 1.46 1.50 1.53 1.34 1.39 1.38 1.23 1.07 0.97 0.96 0.96 0.85 0.80 0.74 0.59 0.56 0.53 0.52 0.52 0.49 0.46 0.47 0.47 0.49 0.51 0.59 0.49 0.54 0.66 0.95 1.09 1.19
1.36 1.36 1.29 1.31 1.34 1.36 1.41 1.49 1.57 1.55 1.52 1.43 1.47 1.38 1.34 1.46 1.42 1.26 1.10 0.94 0.90 0.79 0.74 0.76 0.67 0.53 0.50 0.48 0.50 0.50 0.49 0.50 0.45 0.47 0.44 0.49 0.49 0.50 0.45 0.53 0.61 0.85 0.94
1.16 1.23 1.29 1.32 1.34 1.37 1.40 1.42 1.53 1.54 1.40 1.62 1.46 1.39 1.36 1.43 1.23 1.05 0.96 0.93 0.81 0.76 0.77 0.71 0.61 0.52 0.48 0.46 0.45 0.47 0.49 0.48 0.49 0.48 0.47 0.47 0.47 0.46 0.48 0.45 0.52 0.57 0.65
1.30 1.37 1.31 1.36 1.38 1.41 1.38 1.35 1.26 1.25 1.22 1.28 1.29 1.20 1.18 1.11 0.97 0.97 0.95 0.85 0.82 0.79 0.71 0.66 0.58 0.51 0.48 0.47 0.46 0.46 0.46 0.48 0.52 0.49 0.46 0.49 0.47 0.49 0.47 0.45 0.43 0.45 0.49
1.20 1.15 1.21 1.25 1.25 1.24 1.19 1.17 1.10 1.09 1.00 0.98 1.08 1.04 1.03 1.00 0.97 0.95 0.91 0.89 0.81 0.74 0.66 0.58 0.52 0.49 0.49 0.50 0.48 0.48 0.45 0.43 0.44 0.45 0.45 0.46 0.44 0.46 0.46 0.43 0.43 0.43 0.42
1.11 1.10 1.16 1.23 1.20 1.09 1.11 1.12 1.10 1.02 0.92 0.98 0.99 0.98 0.97 0.96 0.95 0.93 0.96 0.91 0.77 0.69 0.62 0.54 0.56 0.56 0.54 0.49 0.49 0.48 0.48 0.43 0.44 0.46 0.47 0.48 0.50 0.46 0.40 0.42 0.43 0.45 0.44
1.08 1.04 1.07 1.12 1.10 1.08 1.02 1.14 1.14 1.11 1.06 1.00 0.91 0.90 0.93 0.93 0.88 0.93 0.95 0.86 0.77 0.70 0.65 0.54 0.52 0.53 0.50 0.45 0.45 0.46 0.45 0.45 0.44 0.46 0.47 0.48 0.50 0.49 0.44 0.42 0.39 0.41 0.43
0.97 0.91 0.96 0.93 0.94 0.94 0.95 0.98 1.03 1.07 1.01 0.93 0.91 0.94 0.93 0.93 0.95 0.95 0.86 0.83 0.77 0.75 0.63 0.55 0.53 0.51 0.47 0.44 0.42 0.42 0.40 0.41 0.42 0.44 0.48 0.49 0.47 0.47 0.46 0.43 0.43 0.37 0.40
1.14 1.00 0.88 0.99 1.05 1.03 0.92 1.06 1.08 1.04 0.96 0.93 0.92 0.94 0.96 0.96 0.95 0.90 0.85 0.85 0.83 0.74 0.63 0.55 0.50 0.48 0.46 0.45 0.43 0.39 0.38 0.37 0.41 0.42 0.45 0.45 0.43 0.44 0.45 0.41 0.42 0.41 0.37
0.91 1.10 0.96 0.95 1.04 1.06 1.04 1.14 1.12 1.08 1.03 0.97 0.95 0.97 0.96 0.97 0.92 0.88 0.85 0.87 0.83 0.67 0.57 0.50 0.47 0.48 0.50 0.48 0.44 0.38 0.35 0.35 0.42 0.45 0.46 0.45 0.42 0.43 0.41 0.41 0.40 0.40 0.39
0.92 0.87 0.92 0.92 0.96 0.98 1.03 1.08 1.06 1.08 1.16 1.03 1.00 0.98 0.99 0.98 0.91 0.88 0.89 0.87 0.74 0.61 0.51 0.48 0.49 0.51 0.49 0.47 0.44 0.41 0.40 0.39 0.43 0.45 0.48 0.47 0.41 0.42 0.42 0.42 0.41 0.42 0.42
0.98 0.92 0.97 0.98 1.03 1.00 1.01 0.99 1.00 1.11 1.08 1.05 1.00 0.99 1.01 0.99 0.95 0.92 0.90 0.84 0.64 0.53 0.46 0.48 0.52 0.51 0.48 0.46 0.44 0.42 0.41 0.41 0.43 0.45 0.46 0.47 0.43 0.43 0.44 0.43 0.44 0.44 0.45
1.01 1.01 1.00 1.04 1.02 1.00 1.05 1.08 1.07 1.11 1.10 1.07 1.03 1.01 0.99 0.94 0.94 0.90 0.89 0.75 0.57 0.47 0.45 0.48 0.48 0.47 0.45 0.44 0.42 0.41 0.41 0.42 0.45 0.47 0.48 0.47 0.45 0.42 0.45 0.45 0.46 0.45 0.43